FW9687 Weather Reports


time (UTC)temp
F
wind
direction
speed
knots
gust
knots
rain 1hr
in
rain 24hr
in
rain mn
in
humidity
%
barometer
mb
20260506103031 64 5 11.3 15.6 0.00 0.00 0.00 37 1010.7
20260506101517 63 5 11.3 13.0 0.00 0.00 0.00 41 1010.5
20260506100017 64 5 10.4 13.0 0.00 0.00 0.00 42 1010.5
20260506094517 63 5 9.6 12.2 0.00 0.00 0.00 46 1010.4
20260506093034 64 5 9.6 15.6 0.00 0.00 0.00 44 1010.2
20260506091528 64 5 10.4 13.0 0.00 0.00 0.00 45 1010.1
20260506090024 64 5 8.7 11.3 0.00 0.00 0.00 45 1010.2
20260506084523 64 5 7.8 9.6 0.00 0.00 0.00 45 1010.1
20260506083109 64 5 6.1 8.7 0.00 0.00 0.00 45 1009.9
20260506081558 65 5 6.1 9.6 0.00 0.00 0.00 44 1009.8
20260506073051 66 5 7.8 9.6 0.00 0.00 0.00 41 1009.4
20260506071549 67 5 9.6 11.3 0.00 0.00 0.00 39 1009.4
20260506061553 68 5 6.1 7.8 0.00 0.00 0.00 37 1008.9
20260506060110 68 5 4.3 7.8 0.00 0.00 0.00 35 1008.9
20260506044554 69 5 7.8 9.6 0.00 0.00 0.00 35 1008.8
20260506043049 69 5 7.8 11.3 0.00 0.00 0.00 36 1008.8
20260506041550 69 5 8.7 12.2 0.00 0.00 0.00 37 1008.6
20260506040047 68 5 10.4 13.9 0.00 0.00 0.00 38 1008.6
20260506034547 68 5 11.3 13.0 0.00 0.00 0.00 37 1008.4
20260506033050 69 5 10.4 11.3 0.00 0.00 0.00 36 1008.3
20260506031552 69 5 9.6 11.3 0.00 0.00 0.00 37 1008.3
20260506030048 69 5 10.4 12.2 0.00 0.00 0.00 37 1008.1
20260506024557 70 5 12.2 14.8 0.00 0.00 0.00 36 1007.9
20260506023047 70 5 11.3 13.0 0.00 0.00 0.00 37 1007.8
20260506021547 70 5 10.4 13.9 0.00 0.00 0.00 36 1007.8
20260506020047 70 5 10.4 14.8 0.00 0.00 0.00 35 1007.7
20260506014546 71 5 9.6 13.9 0.00 0.00 0.00 34 1007.6
20260506013043 72 5 12.2 18.2 0.00 0.00 0.00 33 1007.5
20260506011544 72 5 13.9 17.4 0.00 0.00 0.00 33 1007.3
20260506010043 72 5 14.8 20.0 0.00 0.00 0.00 32 1007.2
20260506004541 73 5 15.6 23.5 0.00 0.00 0.00 31 1007.2
20260506003038 74 5 14.8 22.6 0.00 0.00 0.00 30 1007.2
20260506001538 74 5 17.4 22.6 0.00 0.00 0.00 29 1007.2
20260506000032 75 5 18.2 26.9 0.00 0.00 0.00 29 1007.3
20260505234536 76 5 21.7 28.7 0.00 0.00 0.00 27 1007.2
20260505233036 76 5 16.5 28.7 0.00 0.00 0.00 28 1007.0
20260505231544 76 5 18.2 23.5 0.00 0.00 0.00 28 1007.0
20260505230048 76 5 20.0 30.4 0.00 0.00 0.00 27 1007.0
20260505224533 77 5 20.9 27.8 0.00 0.00 0.00 26 1007.1
20260505223033 75 5 20.0 26.1 0.00 0.00 0.00 26 1007.1
20260505221530 74 5 16.5 25.2 0.00 0.00 0.00 27 1007.2
20260505220032 74 5 21.7 26.9 0.00 0.00 0.00 27 1007.5
20260505214527 74 5 18.2 24.3 0.00 0.00 0.00 27 1007.5
20260505213040 73 5 17.4 25.2 0.00 0.00 0.00 27 1007.7
20260505211533 73 5 17.4 24.3 0.00 0.00 0.00 26 1008.0
20260505210034 73 5 18.2 26.1 0.00 0.00 0.00 26 1008.2
20260505204531 73 5 22.6 29.5 0.00 0.00 0.00 26 1008.3
20260505203029 73 5 18.2 27.8 0.00 0.00 0.00 27 1008.3
20260505201529 73 5 18.2 25.2 0.00 0.00 0.00 26 1008.3
20260505200029 73 5 14.8 24.3 0.00 0.00 0.00 28 1008.6
20260505194528 73 5 19.1 26.1 0.00 0.00 0.00 27 1008.5
20260505193020 73 5 17.4 25.2 0.00 0.00 0.00 28 1008.3
20260505191519 73 5 17.4 25.2 0.00 0.00 0.00 29 1008.4
20260505190018 73 5 22.6 29.5 0.00 0.00 0.00 29 1008.3
20260505184517 73 5 19.1 26.9 0.00 0.00 0.00 30 1008.5
20260505183030 72 5 20.9 27.8 0.00 0.00 0.00 30 1008.6
20260505181522 73 5 18.2 29.5 0.00 0.00 0.00 30 1008.6
20260505180040 72 5 20.0 25.2 0.00 0.00 0.00 30 1008.9
20260505174519 72 5 11.3 16.5 0.00 0.00 0.00 29 1009.0
20260505173025 72 5 13.0 17.4 0.00 0.00 0.00 29 1008.9
20260505171530 72 5 13.0 20.0 0.00 0.00 0.00 28 1008.9
20260505170033 72 5 13.0 18.2 0.00 0.00 0.00 29 1009.1
20260505164522 71 5 13.0 16.5 0.00 0.00 0.00 28 1008.9
20260505163029 71 5 12.2 19.1 0.00 0.00 0.00 28 1009.0
20260505161525 71 5 16.5 21.7 0.00 0.00 0.00 28 1008.8
20260505153015 71 5 13.9 16.5 0.00 0.00 0.00 28 1008.7
20260505151512 71 5 13.0 16.5 0.00 0.00 0.00 28 1008.9
20260505124546 69 5 9.6 13.9 0.00 0.00 0.00 27 1007.4
20260505123044 69 5 9.6 13.9 0.00 0.01 0.00 26 1007.2
20260505121541 70 5 10.4 15.6 0.00 0.01 0.00 26 1006.9
20260505120041 69 5 11.3 14.8 0.00 0.01 0.00 27 1006.8
20260505114541 67 5 10.4 13.9 0.00 0.01 0.00 28 1006.6
20260505113039 67 5 8.7 12.2 0.00 0.01 0.00 28 1006.8
20260505111533 68 5 9.6 12.2 0.00 0.01 0.00 28 1006.7